TimeCST,TemperatureF,Dew PointF,Humidity,Sea Level PressureIn,VisibilityMPH,Wind Direction,Wind SpeedMPH,Gust SpeedMPH,PrecipitationIn,Events,Conditions,WindDirDegrees,DateUTC
12:53 AM,21.0,10.9,65,30.54,10.0,Calm,Calm,-,N/A,,Clear,0,2012-11-16 06:53:00
1:53 AM,19.9,10.0,65,30.55,10.0,Calm,Calm,-,N/A,,Clear,0,2012-11-16 07:53:00
2:53 AM,19.0,10.0,68,30.55,10.0,Calm,Calm,-,N/A,,Clear,0,2012-11-16 08:53:00
3:53 AM,17.1,10.0,74,30.55,10.0,Calm,Calm,-,N/A,,Clear,0,2012-11-16 09:53:00
4:53 AM,16.0,10.0,77,30.54,10.0,Calm,Calm,-,N/A,,Clear,0,2012-11-16 10:53:00
5:53 AM,15.1,10.0,80,30.53,10.0,Calm,Calm,-,N/A,,Clear,0,2012-11-16 11:53:00
6:53 AM,12.9,10.9,92,30.54,10.0,Calm,Calm,-,N/A,,Clear,0,2012-11-16 12:53:00
7:53 AM,16.0,10.9,81,30.54,10.0,Calm,Calm,-,N/A,,Clear,0,2012-11-16 13:53:00
8:53 AM,25.0,14.0,63,30.55,10.0,ESE,3.5,-,N/A,,Clear,110,2012-11-16 14:53:00
9:53 AM,28.0,17.1,63,30.55,10.0,SSE,5.8,-,N/A,,Clear,150,2012-11-16 15:53:00
10:53 AM,33.1,15.1,48,30.54,10.0,South,6.9,-,N/A,,Clear,190,2012-11-16 16:53:00
11:53 AM,37.0,15.1,41,30.51,10.0,SSW,5.8,-,N/A,,Clear,200,2012-11-16 17:53:00
12:53 PM,39.9,15.1,36,30.48,10.0,SE,10.4,-,N/A,,Clear,130,2012-11-16 18:53:00
1:53 PM,39.9,12.9,33,30.45,10.0,SE,12.7,-,N/A,,Clear,140,2012-11-16 19:53:00
2:53 PM,41.0,15.1,35,30.42,10.0,SE,11.5,-,N/A,,Clear,140,2012-11-16 20:53:00
3:53 PM,39.9,14.0,35,30.41,10.0,SE,9.2,-,N/A,,Clear,140,2012-11-16 21:53:00
4:53 PM,33.1,15.1,48,30.41,10.0,SE,5.8,-,N/A,,Clear,140,2012-11-16 22:53:00
5:53 PM,32.0,15.1,50,30.40,10.0,SE,4.6,-,N/A,,Clear,130,2012-11-16 23:53:00
6:53 PM,34.0,15.1,46,30.37,10.0,SE,6.9,-,N/A,,Clear,130,2012-11-17 00:53:00
7:53 PM,34.0,17.1,50,30.36,10.0,SE,8.1,-,N/A,,Clear,140,2012-11-17 01:53:00
8:53 PM,34.0,19.0,54,30.35,10.0,SE,8.1,-,N/A,,Clear,130,2012-11-17 02:53:00
9:53 PM,33.1,19.9,59,30.34,10.0,SE,5.8,-,N/A,,Clear,130,2012-11-17 03:53:00
10:53 PM,33.1,21.0,61,30.33,10.0,SE,6.9,-,N/A,,Clear,130,2012-11-17 04:53:00
11:53 PM,32.0,23.0,69,30.33,10.0,SE,8.1,-,N/A,,Clear,130,2012-11-17 05:53:00